| time (UTC) | temp C | wind direction | speed KPH | gust KPH | rain 1hr cm | rain 24hr cm | rain mn cm | humidity % | barometer mb |
| 20260503054424 | 10 | 0 | 0.0 | 0.0 | 0.00 | 0.15 | 0.15 | 78 | 1016.8 |
| 20260503053403 | 11 | 329 | 0.0 | 0.0 | 0.00 | 0.15 | 0.15 | 79 | 1016.9 |
| 20260503051323 | 11 | 0 | 0.0 | 0.0 | 0.00 | 0.15 | 0.15 | 77 | 1016.8 |
| 20260503050303 | 11 | 0 | 0.0 | 0.0 | 0.00 | 0.15 | 0.15 | 76 | 1017.3 |
| 20260503045243 | 11 | 0 | 0.0 | 0.0 | 0.00 | 0.15 | 0.15 | 76 | 1017.3 |
| 20260503044224 | 11 | 0 | 0.0 | 0.0 | 0.00 | 0.15 | 0.15 | 71 | 1017.5 |
| 20260503043203 | 11 | 0 | 0.0 | 0.0 | 0.00 | 0.15 | 0.15 | 71 | 1017.0 |
| 20260503042143 | 11 | 0 | 0.0 | 0.0 | 0.00 | 0.15 | 0.15 | 73 | 1017.0 |
| 20260503041124 | 11 | 0 | 0.0 | 0.0 | 0.00 | 0.15 | 0.15 | 73 | 1017.0 |
| 20260503035045 | 11 | 0 | 0.0 | 0.0 | 0.00 | 0.15 | 0.15 | 75 | 1017.0 |
| 20260503034028 | 11 | 0 | 0.0 | 0.0 | 0.00 | 0.15 | 0.15 | 74 | 1017.0 |
| 20260503033004 | 12 | 0 | 0.0 | 0.0 | 0.00 | 0.15 | 0.15 | 73 | 1016.8 |
| 20260503031946 | 12 | 0 | 0.0 | 0.0 | 0.00 | 0.15 | 0.15 | 68 | 1016.7 |
| 20260503030926 | 12 | 0 | 0.0 | 0.0 | 0.00 | 0.15 | 0.15 | 71 | 1016.2 |
| 20260503025909 | 12 | 0 | 0.0 | 0.0 | 0.00 | 0.15 | 0.15 | 70 | 1016.1 |
| 20260503023828 | 12 | 0 | 0.0 | 0.0 | 0.00 | 0.15 | 0.15 | 68 | 1015.6 |
| 20260503022813 | 12 | 0 | 0.0 | 0.0 | 0.00 | 0.15 | 0.15 | 67 | 1016.0 |
| 20260503021756 | 12 | 0 | 0.0 | 0.0 | 0.00 | 0.15 | 0.15 | 69 | 1015.9 |
| 20260503020741 | 12 | 0 | 0.0 | 0.0 | 0.00 | 0.15 | 0.15 | 67 | 1015.9 |
| 20260503015721 | 12 | 0 | 0.0 | 0.0 | 0.03 | 0.15 | 0.15 | 68 | 1015.8 |
| 20260503014710 | 12 | 0 | 0.0 | 0.0 | 0.08 | 0.15 | 0.15 | 68 | 1015.6 |
| 20260503013700 | 12 | 0 | 0.0 | 0.0 | 0.08 | 0.15 | 0.15 | 70 | 1015.8 |
| 20260503012650 | 12 | 0 | 0.0 | 0.0 | 0.08 | 0.15 | 0.15 | 71 | 1016.1 |
| 20260503011638 | 12 | 0 | 0.0 | 0.0 | 0.10 | 0.15 | 0.15 | 72 | 1016.3 |
| 20260503010629 | 13 | 5 | 0.0 | 0.0 | 0.08 | 0.13 | 0.15 | 73 | 1016.5 |
| 20260503004611 | 14 | 0 | 0.0 | 0.0 | 0.08 | 0.08 | 0.08 | 70 | 1016.3 |
| 20260503003601 | 15 | 0 | 0.0 | 0.0 | 0.08 | 0.08 | 0.08 | 66 | 1015.6 |
| 20260503002543 | 15 | 0 | 0.0 | 0.0 | 0.08 | 0.08 | 0.08 | 59 | 1015.1 |
| 20260503001526 | 16 | 0 | 0.0 | 0.0 | 0.05 | 0.05 | 0.05 | 60 | 1015.2 |
| 20260503000517 | 18 | 0 | 3.2 | 9.7 | 0.00 | 0.00 | 0.00 | 49 | 1015.1 |
| 20260502235455 | 18 | 0 | 4.8 | 24.1 | 0.00 | 0.00 | 0.00 | 39 | 1014.7 |
| 20260502234435 | 18 | 0 | 6.4 | 17.7 | 0.00 | 0.00 | 0.00 | 37 | 1014.5 |
| 20260502233428 | 18 | 0 | 11.3 | 20.9 | 0.00 | 0.00 | 0.00 | 34 | 1014.5 |
| 20260502232412 | 18 | 0 | 3.2 | 16.1 | 0.00 | 0.00 | 0.00 | 33 | 1014.5 |
| 20260502231356 | 18 | 0 | 9.7 | 17.7 | 0.00 | 0.00 | 0.00 | 32 | 1014.5 |
| 20260502230333 | 18 | 0 | 14.5 | 22.5 | 0.00 | 0.00 | 0.00 | 32 | 1014.7 |
| 20260502224252 | 19 | 0 | 12.9 | 20.9 | 0.00 | 0.00 | 0.00 | 30 | 1014.9 |
| 20260502222215 | 20 | 190 | 4.8 | 9.7 | 0.00 | 0.00 | 0.00 | 28 | 1015.1 |
| 20260502221155 | 19 | 0 | 1.6 | 12.9 | 0.00 | 0.00 | 0.00 | 29 | 1015.1 |
| 20260502220133 | 19 | 0 | 6.4 | 14.5 | 0.00 | 0.00 | 0.00 | 28 | 1015.2 |
| 20260502215117 | 20 | 0 | 9.7 | 19.3 | 0.00 | 0.00 | 0.00 | 27 | 1015.5 |
| 20260502212013 | 20 | 209 | 6.4 | 19.3 | 0.00 | 0.00 | 0.00 | 27 | 1015.8 |
| 20260502210956 | 20 | 0 | 4.8 | 17.7 | 0.00 | 0.00 | 0.00 | 26 | 1015.9 |
| 20260502205933 | 20 | 0 | 6.4 | 16.1 | 0.00 | 0.00 | 0.00 | 25 | 1015.9 |
| 20260502204916 | 20 | 0 | 4.8 | 9.7 | 0.00 | 0.00 | 0.00 | 27 | 1015.9 |
| 20260502203904 | 20 | 0 | 4.8 | 19.3 | 0.00 | 0.00 | 0.00 | 26 | 1016.0 |
| 20260502202845 | 20 | 0 | 3.2 | 16.1 | 0.00 | 0.00 | 0.00 | 25 | 1016.0 |
| 20260502201829 | 20 | 0 | 6.4 | 16.1 | 0.00 | 0.00 | 0.00 | 26 | 1016.1 |
| 20260502200805 | 21 | 160 | 4.8 | 20.9 | 0.00 | 0.00 | 0.00 | 26 | 1016.1 |
| 20260502195746 | 21 | 0 | 4.8 | 14.5 | 0.00 | 0.00 | 0.00 | 25 | 1016.1 |
| 20260502194726 | 21 | 0 | 3.2 | 9.7 | 0.00 | 0.00 | 0.00 | 26 | 1016.2 |
| 20260502193705 | 21 | 0 | 1.6 | 8.0 | 0.00 | 0.00 | 0.00 | 25 | 1016.2 |
| 20260502192657 | 21 | 0 | 6.4 | 19.3 | 0.00 | 0.00 | 0.00 | 26 | 1016.3 |
| 20260502191630 | 21 | 0 | 3.2 | 24.1 | 0.00 | 0.00 | 0.00 | 26 | 1016.3 |
| 20260502190610 | 21 | 0 | 1.6 | 6.4 | 0.00 | 0.00 | 0.00 | 27 | 1016.5 |
| 20260502184535 | 21 | 0 | 6.4 | 17.7 | 0.00 | 0.00 | 0.00 | 27 | 1016.7 |
| 20260502182518 | 21 | 0 | 9.7 | 22.5 | 0.00 | 0.00 | 0.00 | 26 | 1016.9 |
| 20260502181501 | 21 | 0 | 1.6 | 8.0 | 0.00 | 0.00 | 0.00 | 26 | 1016.8 |
| 20260502180454 | 21 | 0 | 3.2 | 11.3 | 0.00 | 0.00 | 0.00 | 26 | 1016.9 |
| 20260502170354 | 19 | 0 | 0.0 | 0.0 | 0.00 | 0.00 | 0.00 | 31 | 1017.0 |
| 20260502164325 | 18 | 0 | 0.0 | 0.0 | 0.00 | 0.00 | 0.00 | 33 | 1017.0 |
| 20260502162252 | 17 | 0 | 0.0 | 0.0 | 0.00 | 0.00 | 0.00 | 37 | 1017.0 |
| 20260502160228 | 16 | 0 | 3.2 | 6.4 | 0.00 | 0.00 | 0.00 | 38 | 1017.2 |
| 20260502152111 | 13 | 0 | 3.2 | 8.0 | 0.00 | 0.00 | 0.00 | 48 | 1017.2 |
| 20260502151048 | 13 | 0 | 0.0 | 0.0 | 0.00 | 0.00 | 0.00 | 49 | 1017.2 |
| 20260502130649 | 11 | 0 | 0.0 | 0.0 | 0.00 | 0.00 | 0.00 | 53 | 1016.1 |
| 20260502123547 | 12 | 0 | 0.0 | 0.0 | 0.00 | 0.00 | 0.00 | 49 | 1016.2 |
| 20260502122527 | 12 | 0 | 0.0 | 0.0 | 0.00 | 0.00 | 0.00 | 49 | 1016.1 |
| 20260502121507 | 12 | 0 | 0.0 | 0.0 | 0.00 | 0.00 | 0.00 | 51 | 1016.2 |
| 20260502120450 | 12 | 0 | 0.0 | 0.0 | 0.00 | 0.00 | 0.00 | 52 | 1016.1 |
| 20260502114407 | 12 | 0 | 0.0 | 0.0 | 0.00 | 0.00 | 0.00 | 46 | 1016.1 |
| 20260502112332 | 13 | 0 | 0.0 | 0.0 | 0.00 | 0.00 | 0.00 | 44 | 1016.2 |
| 20260502111317 | 13 | 0 | 0.0 | 0.0 | 0.00 | 0.00 | 0.00 | 42 | 1016.1 |
| 20260502110256 | 13 | 0 | 0.0 | 0.0 | 0.00 | 0.00 | 0.00 | 43 | 1016.1 |
| 20260502105240 | 13 | 0 | 0.0 | 0.0 | 0.00 | 0.00 | 0.00 | 41 | 1016.1 |
| 20260502104223 | 13 | 0 | 0.0 | 0.0 | 0.00 | 0.00 | 0.00 | 37 | 1016.1 |
| 20260502103217 | 13 | 0 | 0.0 | 0.0 | 0.00 | 0.00 | 0.00 | 35 | 1016.1 |
| 20260502102203 | 13 | 0 | 0.0 | 0.0 | 0.00 | 0.00 | 0.00 | 36 | 1016.1 |
| 20260502101155 | 13 | 0 | 0.0 | 0.0 | 0.00 | 0.00 | 0.00 | 37 | 1016.0 |
| 20260502100151 | 13 | 0 | 0.0 | 0.0 | 0.00 | 0.00 | 0.00 | 38 | 1016.0 |
| 20260502091050 | 14 | 0 | 0.0 | 0.0 | 0.00 | 0.00 | 0.00 | 39 | 1016.5 |